Hourly Data Report for January 17, 2020

TORONTO CITY
ONTARIO
Current Station Operator: ECCC - MSC

43°40'00.000" N
79°24'00.000" W
112.50 m
6158355
71508
XTO

Download Data

Hourly Data (January 2020)
Hourly Data Report for January 17, 2020
TIME
LST
Temp Definition
°C
Dew Point Definition
°C
Rel Hum Definition
%
Precip. Amount Definition
mm

Wind Dir Definition
10's deg

Wind Spd Definition
km/h
Visibility Definition
km
Stn Press Definition
kPa
Hmdx Definition


Wind Chill Definition


Weather Definition


00:00 -9.5 -15.8 60 0.0       102.35     LegendNANA
01:00 -10.4 -17.7 55 0.0       102.45     LegendNANA
02:00 -10.8 -18.3 54 0.0       102.56     LegendNANA
03:00 -11.6 -19.0 54 0.0       102.68     LegendNANA
04:00 -12.2 -19.4 55 0.0       102.76     LegendNANA
05:00 -12.6 -19.3 58 0.0       102.86     LegendNANA
06:00 -13.2 -19.6 59 0.0       102.97     LegendNANA
07:00 -13.2 -19.3 60 0.0       103.08     LegendNANA
08:00 -13.4 -18.6 65 0.0       103.12     LegendNANA
09:00 -12.9 -18.4 64 0.0       103.14     LegendNANA
10:00 -11.3 -17.9 58 0.0       103.13     LegendNANA
11:00 -9.6 -17.5 52 0.0       103.16     LegendNANA
12:00 -9.0 -18.2 47 0.0       103.06     LegendNANA
13:00 -7.7 -17.0 47 0.0       102.95     LegendNANA
14:00 -7.3 -16.3 49 0.0       102.87     LegendNANA
15:00 -7.9 -15.1 56 0.0       102.79     LegendNANA
16:00 -8.2 -14.3 61 0.0       102.78     LegendNANA
17:00 -8.2 -14.0 63 0.0       102.77     LegendNANA
18:00 -8.2 -13.5 66 0.0       102.74     LegendNANA
19:00 -7.9 -13.2 65 0.0       102.74     LegendNANA
20:00 -7.8 -13.1 66 0.0       102.73     LegendNANA
21:00 -7.6 -12.5 68 0.0       102.63     LegendNANA
22:00 -7.7 -13.0 66 0.0       102.58     LegendNANA
23:00 -7.7 -12.9 66 0.0       102.50     LegendNANA

Notes on Data Quality.

Legend

  • E = Estimated
  • M = Missing
  • NA = Not Available*
  • [empty] = Indicates an unobserved value
Date modified: